DELTA 1 DEB, 21465

Orbit data source: Space-Track

DELTA 1 DEB, 21465 is space debris in SSO originally from a launch on Thu, 12 Jun 1975 UTC launched from the Air Force Western Test Range (AFWTR). Debris objects in space refer to the collection of defunct objects orbiting the Earth. Examples of debris include non-operational satellites, rocket bodies, and fragments generated from explosions, collisions, or faulty payload assembly.

Loading next visibility...
Identifier
21465, 1975-052EZ
Orbit
SSO
Country
Flag of USUS
Related business
Manufacturer
Unknown
Mission
Spacecraft
Bus & Motor
Unknown
Mass
Unknown
Launch date (UTC)
1975-06-12 (51 years ago)
Launch vehicle
Unknown
Launch site
Air Force Western Test Range (AFWTR)
Object type
Payload
Rocket body
Debris
Shape & HBR
Unknown shape, 0.1 m
Radar Cross Section
Small (<0.1 m²)

Expand to show TLE details & history
Last TLE update: 10 hours ago

TLE from 10 hours ago
0 DELTA 1 DEB
1 21465U 75052EZ  25351.20315596  .00000208  00000-0  39622-3 0  9999
2 21465  99.6409 217.7480 0067700 175.8292 314.0200 13.48730466700559
Epoch: 2025-12-17T04:52Z
TLE epoch observation values (Epoch: 2025-12-17T04:52:32.674Z)
Latitude
49.83049°
Longitude
-109.91616°
Altitude
1,049.85 km
Speed
7.349 km/s
True Right ascension
03h 17m 11s
True Declination
49° 40' 03"
Sunlit
Object was in full shadow at epoch
Visualization orbit readout
Latitude
Unknown
Longitude
Unknown
Altitude
Unknown
Speed
Unknown
Apparent Right ascension
Unknown
Apparent Declination
Unknown
Sunlit
N/A
Visualization observer readout
Local Sidereal Time
13:10:12
Azimuth
Unknown
Elevation
Unknown
Doppler factor
Unknown
Orbital elements
Apogee altitude
1,124.685 km
Perigee altitude
1,023.78 km
Semi-major axis
7,452.37 km
Eccentricity
0.00677
Inclination
99.6409°
RAAN
217.748°
Arg. of periapsis
175.8292°
True anomaly
313.45884°
Mean anomaly
314.02°
Eccentric anomaly
313.73975°
Mean motion
3.37366 °/min
Orbital period
106.71 mins
BSTAR
0.00039622
Loading maneuver chart data...
Computing Atmospheric mass density...
Loading historical data...
Loading historical data...
Loading historical data...
Loading historical data...
Loading historical data...
Loading historical data...
Loading historical data...

Documentation

Showing up to 5 results
|